星链-3748 (STARLINK-3748 )

导读

STARLINK-3748是美国SpaceX公司星链星座的组网卫星,于2022年4月21日发射升空,属于星链星座大规模低轨卫星互联网部署计划的组成部分。星链项目旨在通过近地轨道卫星群,为全球提供高速低延迟互联网服务,填补偏远地区网络覆盖空白,同时也可支持军事与应急通信场景,该卫星目前在轨参与星座组网运行。

基本信息
目录编号:
52267
目录名称:
STARLINK-3748
国际标识:
2022-041G
轨道中心:
EARTH
卫星名称:
星链-3748
卫星全名:
星链-3748 (STARLINK-3748 )
卫星状态:
在轨 (已飞行1597 天)
发射日期:
2022-04-21 UTC
国别 :
美国 (US)
星等 :
--
轨道信息
数据来源 国际轨道数据 AOE轨道数据
星历时间 2026-09-04T02:57:40+0800
15小时前
查看轨道信息
2026-09-03T16:00:00+0800
1天前
查看轨道信息
半长轴 6837.866km 6837.861km
偏心率 0.0001116 0.0001277
轨道倾角 53.162° 53.161°
近地点辐角 82.439° 50.162°
升交点赤经 18.238° 20.381°
平近点角 277.674° 304.112°
近地点 458.965km 458.85km
远地点 460.493km 460.598km
周期 93.787分钟 93.786分钟
每日圈数 15.354014 15.354031
详细信息
固有亮度:
5
最大亮度:
2.5
卫星平台:
Starlink v1.5
覆盖范围:
全球
运营商:
太空探索技术公司
运营商所在国:
美国
制造商(研发单位):
太空探索技术公司
制造商所在国:
美国
使用方式:
暂无
卫星简介
星链(Starlink)计划是由太空探索技术公司(SpaceX)提出的一个巨型低轨卫星互联网星座项目,计划在2019年至2024年间在太空搭建由约1.2万颗卫星组成的“星链”网络,其中1584颗将部署在地球上空550千米处的近地轨道,并从2020年开始工作。该卫星仍在工作。
2D轨道图
3D轨道图
轨道高度分析图
轨道倾角分析图
轨道综合分析图
查看轨道综合分析图
交会数据列表
事件ID 空间交会对象 最接近时刻(TCA) 交会距离 交会风险概率(CRP) 交会风险指数(CRI) 操作
CDM_260905-201805-226706-470121
2026-09-05T
20:18:41+0000
1.293 km
极远距离
1.011265E-5 中风险 0.55
CDM_260906-134605-226705-339721
2026-09-06T
13:46:29+0000
1.034 km
极远距离
6.877721E-6 低风险 0.52
CDM_260905-215205-226706-470121
2026-09-05T
21:52:27+0000
2.314 km
极远距离
1.880667E-6 低风险 0.4
CDM_260905-030405-226706-574921
2026-09-05T
03:04:32+0000
2.620 km
极远距离
1.4271E-6 低风险 0.38
CDM_260906-115005-226706-277721
2026-09-06T
11:50:27+0000
2.717 km
极远距离
1.363993E-6 低风险 0.38
CDM_260905-020805-226706-823321
2026-09-05T
02:08:22+0000
2.713 km
极远距离
1.361649E-6 低风险 0.38
CDM_260905-215105-226706-569221
2026-09-05T
21:51:39+0000
2.678 km
极远距离
1.355022E-6 低风险 0.38
CDM_260906-162005-226706-551321
2026-09-06T
16:20:56+0000
2.730 km
极远距离
1.316482E-6 低风险 0.37
CDM_260906-030305-226706-896821
2026-09-06T
03:03:08+0000
2.814 km
极远距离
1.245457E-6 低风险 0.37
CDM_260905-195805-226706-620421
2026-09-05T
19:58:26+0000
2.823 km
极远距离
1.186454E-6 低风险 0.36